sat.trackr.live / text

‹ back to catalog

STARLINK-32382

NORAD 61258 · 2024-175R

PAYLOAD ACTIVE UNKNOWN

§ Identity

Operator
Country
US
Launch date
2024-09-25
Launch site
AFWTR
Launch vehicle
Mass (kg)
RCS (m²)

Purposes: comms

External: N2YO · Heavens-Above · Gunter

§ Orbital elements

Epoch: 2026-09-21T10:21:42.991776Z

Period
93.85 min
Inclination
53.1598°
Eccentricity
0.0000726
Mean motion
15.34393892 rev/d
Perigee alt
462.2 km
Apogee alt
463.2 km
Semi-major
6,840.9 km
B*
6.8725e-6
RAAN
1.2191°
Arg perigee
39.8905°
Mean anomaly
320.2151°
Rev number
11,147

§ Raw data

STARLINK-323821 61258U 24175R   26264.43174759 -.00000144  00000+0  68725-5 0  99932 61258  53.1598   1.2191 0000726  39.8905 320.2151 15.34393892111473

JSON: /api/v1/satellites/61258 · /tle

For live sub-satellite position, see the globe view (requires WebGL).

§ Visibility from observer

Set your observer location to see the next 7 days of passes ≥ 10°. The values pass through the URL so the page stays shareable.

No JS? Fill the form by hand. The geolocation button needs JavaScript.